TimeCST,TemperatureF,Dew PointF,Humidity,Sea Level PressureIn,VisibilityMPH,Wind Direction,Wind SpeedMPH,Gust SpeedMPH,PrecipitationIn,Events,Conditions,WindDirDegrees,DateUTC
12:15 AM,52.5,45.1,76,30.31,7.0,Calm,Calm,-,N/A,,Clear,0,2013-01-19 06:15:00
12:35 AM,52.3,45.0,76,30.31,7.0,Calm,Calm,-,N/A,,Clear,0,2013-01-19 06:35:00
12:55 AM,50.9,44.6,79,30.31,7.0,Calm,Calm,-,N/A,,Clear,0,2013-01-19 06:55:00
1:15 AM,50.0,43.7,79,30.30,7.0,East,3.5,-,N/A,,Clear,100,2013-01-19 07:15:00
1:35 AM,49.6,44.4,82,30.29,10.0,Calm,Calm,-,N/A,,Clear,0,2013-01-19 07:35:00
1:55 AM,50.2,44.2,80,30.28,7.0,Calm,Calm,-,N/A,,Clear,0,2013-01-19 07:55:00
2:15 AM,51.8,45.5,79,30.28,7.0,Calm,Calm,-,N/A,,Clear,0,2013-01-19 08:15:00
2:35 AM,50.7,45.0,81,30.28,7.0,Calm,Calm,-,N/A,,Clear,0,2013-01-19 08:35:00
2:55 AM,50.4,45.5,83,30.27,7.0,Calm,Calm,-,N/A,,Clear,0,2013-01-19 08:55:00
3:15 AM,49.5,45.0,84,30.26,7.0,Calm,Calm,-,N/A,,Clear,0,2013-01-19 09:15:00
3:35 AM,50.0,45.3,84,30.26,7.0,Calm,Calm,-,N/A,,Clear,0,2013-01-19 09:35:00
3:55 AM,49.8,44.8,83,30.26,10.0,Calm,Calm,-,N/A,,Clear,0,2013-01-19 09:55:00
4:15 AM,48.2,43.7,84,30.26,7.0,Calm,Calm,-,N/A,,Clear,0,2013-01-19 10:15:00
4:35 AM,47.3,43.3,86,30.26,7.0,NW,4.6,-,N/A,,Clear,320,2013-01-19 10:35:00
4:55 AM,46.6,43.0,87,30.25,7.0,NNW,4.6,-,N/A,,Clear,330,2013-01-19 10:55:00
5:15 AM,46.6,43.0,87,30.26,7.0,NW,4.6,-,N/A,,Clear,320,2013-01-19 11:15:00
5:35 AM,45.9,42.6,88,30.26,7.0,NNW,5.8,-,N/A,,Clear,330,2013-01-19 11:35:00
5:55 AM,45.1,41.9,88,30.26,7.0,NW,4.6,-,N/A,,Clear,320,2013-01-19 11:55:00
7:15 AM,44.1,41.0,89,30.28,7.0,NNW,4.6,-,N/A,,Clear,330,2013-01-19 13:15:00
8:15 AM,46.6,43.9,90,30.29,4.0,NNW,4.6,-,N/A,,Clear,330,2013-01-19 14:15:00
8:35 AM,48.7,45.5,89,30.30,4.0,Calm,Calm,-,N/A,,Clear,0,2013-01-19 14:35:00
9:35 AM,56.3,47.7,73,30.31,5.0,Calm,Calm,-,N/A,,Haze,0,2013-01-19 15:35:00
9:55 AM,60.4,48.6,65,30.31,5.0,Calm,Calm,-,N/A,,Haze,0,2013-01-19 15:55:00
10:15 AM,63.0,49.1,61,30.32,7.0,Calm,Calm,-,N/A,,Clear,0,2013-01-19 16:15:00
10:35 AM,64.9,48.9,56,30.31,5.0,Calm,Calm,-,N/A,,Haze,0,2013-01-19 16:35:00
10:55 AM,66.7,48.7,52,30.31,7.0,SE,4.6,-,N/A,,Clear,130,2013-01-19 16:55:00
11:15 AM,68.4,48.9,50,30.30,7.0,SE,5.8,-,N/A,,Clear,130,2013-01-19 17:15:00
11:35 AM,69.6,48.6,47,30.29,5.0,SSE,5.8,-,N/A,,Haze,160,2013-01-19 17:35:00
11:55 AM,70.5,48.6,46,30.28,7.0,South,5.8,-,N/A,,Clear,170,2013-01-19 17:55:00
12:15 PM,71.8,46.8,41,30.27,7.0,South,6.9,-,N/A,,Clear,190,2013-01-19 18:15:00
12:35 PM,71.8,46.6,41,30.25,7.0,SSW,6.9,-,N/A,,Clear,210,2013-01-19 18:35:00
12:55 PM,73.6,44.1,35,30.23,7.0,South,9.2,-,N/A,,Clear,170,2013-01-19 18:55:00
1:15 PM,73.0,43.9,35,30.21,7.0,South,4.6,-,N/A,,Clear,190,2013-01-19 19:15:00
1:55 PM,74.5,43.3,33,30.19,7.0,South,9.2,16.1,N/A,,Clear,170,2013-01-19 19:55:00
2:15 PM,74.7,43.3,33,30.18,5.0,SSW,4.6,-,N/A,,Haze,200,2013-01-19 20:15:00
2:35 PM,75.0,43.5,32,30.18,7.0,South,8.1,-,N/A,,Clear,190,2013-01-19 20:35:00
2:55 PM,75.4,43.3,32,30.16,4.0,SW,5.8,-,N/A,,Haze,220,2013-01-19 20:55:00
3:15 PM,74.8,43.2,32,30.15,5.0,South,4.6,-,N/A,,Haze,170,2013-01-19 21:15:00
3:35 PM,75.2,43.2,32,30.15,7.0,South,5.8,-,N/A,,Clear,190,2013-01-19 21:35:00
3:55 PM,75.4,42.4,31,30.14,7.0,South,6.9,-,N/A,,Clear,190,2013-01-19 21:55:00
4:15 PM,75.2,41.9,30,30.15,7.0,SSE,10.4,-,N/A,,Clear,150,2013-01-19 22:15:00
4:35 PM,75.0,42.4,31,30.15,7.0,South,4.6,-,N/A,,Clear,170,2013-01-19 22:35:00
4:55 PM,74.7,42.6,32,30.16,7.0,South,6.9,-,N/A,,Clear,180,2013-01-19 22:55:00
5:15 PM,74.1,43.2,33,30.16,7.0,South,8.1,-,N/A,,Clear,170,2013-01-19 23:15:00
5:35 PM,72.9,44.2,36,30.15,7.0,SSE,3.5,-,N/A,,Clear,160,2013-01-19 23:35:00
5:55 PM,71.6,45.0,38,30.16,7.0,South,3.5,-,N/A,,Clear,190,2013-01-19 23:55:00
6:15 PM,70.7,44.4,39,30.17,7.0,Calm,Calm,-,N/A,,Clear,0,2013-01-20 00:15:00
6:35 PM,67.6,50.5,54,30.18,7.0,ESE,11.5,-,N/A,,Clear,120,2013-01-20 00:35:00
6:55 PM,66.2,50.9,58,30.18,10.0,ESE,9.2,-,N/A,,Clear,120,2013-01-20 00:55:00
7:15 PM,65.3,50.9,60,30.19,7.0,ESE,9.2,-,N/A,,Clear,110,2013-01-20 01:15:00
7:35 PM,64.6,50.9,61,30.20,7.0,ESE,8.1,-,N/A,,Clear,110,2013-01-20 01:35:00
7:55 PM,63.5,50.9,63,30.20,7.0,ESE,8.1,-,N/A,,Clear,110,2013-01-20 01:55:00
8:15 PM,62.6,50.5,65,30.21,7.0,ESE,6.9,-,N/A,,Clear,120,2013-01-20 02:15:00
8:35 PM,61.0,50.4,68,30.21,7.0,ESE,8.1,-,N/A,,Clear,120,2013-01-20 02:35:00
8:55 PM,59.9,50.2,70,30.23,10.0,SE,6.9,-,N/A,,Clear,130,2013-01-20 02:55:00
9:15 PM,58.8,50.0,73,30.23,10.0,SE,4.6,-,N/A,,Clear,130,2013-01-20 03:15:00
9:35 PM,57.7,49.8,75,30.22,10.0,SE,4.6,-,N/A,,Clear,130,2013-01-20 03:35:00
9:55 PM,57.2,50.0,77,30.23,7.0,SE,4.6,-,N/A,,Clear,130,2013-01-20 03:55:00
10:15 PM,57.4,50.2,77,30.23,7.0,Calm,Calm,-,N/A,,Clear,0,2013-01-20 04:15:00
10:35 PM,56.1,49.3,78,30.23,5.0,Calm,Calm,-,N/A,,Haze,0,2013-01-20 04:35:00
10:55 PM,55.4,49.3,80,30.23,7.0,Calm,Calm,-,N/A,,Clear,0,2013-01-20 04:55:00
11:15 PM,55.4,49.6,81,30.23,10.0,Calm,Calm,-,N/A,,Clear,0,2013-01-20 05:15:00
11:35 PM,54.9,49.5,82,30.23,7.0,ESE,3.5,-,N/A,,Clear,110,2013-01-20 05:35:00
11:55 PM,54.7,49.3,82,30.23,7.0,Calm,Calm,-,N/A,,Clear,0,2013-01-20 05:55:00